Weather History for Poughkeepsie, NY

Change the Weather History Date:

Monday, August 4, 2014

  Actual Average Record
Temperature  
Mean Temperature 74 °F 73 °F  
Max Temperature 84 °F 84 °F 97 °F (2005)
Min Temperature 64 °F 61 °F 45 °F (1964)
Degree Days  
Heating Degree Days 0 0  
Month to date heating degree days 0 0  
Since 1 June heating degree days 7 54  
Since 1 July heating degree days 0 5  
Cooling Degree Days 9 0  
Month to date cooling degree days 29 32  
Year to date cooling degree days 465 435  
Since 1 June cooling degree days 432 399  
Growing Degree Days 24 (Base 50)    
Moisture  
Dew Point 65 °F    
Average Humidity 70    
Maximum Humidity 93    
Minimum Humidity 47    
Precipitation  
Precipitation 0.00 in 0.16 in 2.00 in (1969)
Month to date precipitation 0.83 0.63  
Year to date precipitation 22.12 27.21  
Sea Level Pressure  
Sea Level Pressure 30.02 in    
Wind  
Wind Speed 2 mph (WSW)    
Max Wind Speed 7 mph    
Max Gust Speed -    
Visibility 10 miles    
Events      
T = Trace of Precipitation, MM = Missing Value Source: NWS Daily Summary

Daily Weather History Graph

Daily Weather History Graph

Search for Another Location

Airport:

Trip Planner

Search our weather history database for the weather conditions in past years. The results will help you decide how hot, cold, wet, or windy it might be!

Date:

Astronomy

Aug. 04, 2014 Rise Set
Actual Time 5:52 AM EDT 8:09 PM EDT
Civil Twilight 5:21 AM EDT 8:40 PM EDT
Nautical Twilight 4:43 AM EDT 9:18 PM EDT
Astronomical Twilight 4:01 AM EDT 10:00 PM EDT
Moon 2:18 PM EDT (8/4) No Moon Set
Length of Visible Light 15h 18m
Length of Day
14h 16m
First Quarter, 57% of the Moon is Illuminated
Aug 4
First Quarter
Aug 10
Full
Aug 17
Last Quarter
Aug 25
New
Sep 2
First Quarter

Hourly Weather History & Observations

Time (EDT) Temp. Heat Index Dew Point Humidity Pressure Visibility Wind Dir Wind Speed Gust Speed Precip Events Conditions
12:53 AM 68.0 °F - 64.0 °F 87% 30.02 in 10.0 mi SE 3.5 mph - N/A   Clear
2:53 AM 66.0 °F - 63.0 °F 90% 30.02 in 10.0 mi Calm Calm - N/A   Clear
3:53 AM 64.9 °F - 63.0 °F 93% 30.02 in 10.0 mi Calm Calm - N/A   Clear
6:53 AM 66.9 °F - 64.0 °F 90% 30.03 in 7.0 mi Calm Calm - N/A   Partly Cloudy
8:53 AM 73.0 °F - 64.9 °F 76% 30.04 in 10.0 mi SW 6.9 mph - N/A   Partly Cloudy
9:46 AM 77.0 °F - 66.0 °F 69% 30.05 in 10.0 mi Calm Calm - N/A   Mostly Cloudy
10:17 AM 78.1 °F - 64.9 °F 64% 30.05 in 10.0 mi Variable 3.5 mph - N/A   Scattered Clouds
10:53 AM 77.0 °F - 64.9 °F 66% 30.04 in 10.0 mi Calm Calm - N/A   Scattered Clouds
11:53 AM 80.1 °F 82.1 °F 66.0 °F 62% 30.04 in 10.0 mi NNE 3.5 mph - N/A   Scattered Clouds
12:53 PM 81.0 °F 82.2 °F 63.0 °F 54% 30.03 in 10.0 mi NNE 3.5 mph - N/A   Mostly Cloudy
1:53 PM 81.0 °F 82.7 °F 64.9 °F 58% 30.02 in 10.0 mi Calm Calm - N/A   Mostly Cloudy
2:53 PM 82.9 °F 83.7 °F 62.1 °F 49% 30.01 in 10.0 mi SW 4.6 mph - N/A   Mostly Cloudy
3:53 PM 82.9 °F 83.7 °F 62.1 °F 49% 30.00 in 10.0 mi Variable 5.8 mph - N/A   Clear
4:53 PM 84.0 °F 84.5 °F 62.1 °F 47% 29.99 in 10.0 mi West 3.5 mph - N/A   Clear
5:53 PM 82.9 °F 84.4 °F 64.0 °F 53% 29.99 in 10.0 mi SW 6.9 mph - N/A   Partly Cloudy
6:53 PM 82.9 °F 84.4 °F 64.0 °F 53% 29.99 in 10.0 mi West 4.6 mph - N/A   Clear
7:53 PM 78.1 °F - 66.9 °F 68% 30.00 in 10.0 mi Calm Calm - N/A   Clear
8:53 PM 73.0 °F - 66.9 °F 81% 30.01 in 10.0 mi Calm Calm - N/A   Clear
9:53 PM 72.0 °F - 66.9 °F 84% 30.01 in 10.0 mi Calm Calm - N/A   Mostly Cloudy
10:53 PM 71.1 °F - 66.0 °F 84% 30.02 in 10.0 mi Calm Calm - N/A   Clear
11:53 PM 69.1 °F - 66.0 °F 90% 30.02 in 10.0 mi Calm Calm - N/A   Clear